STARLINK-11413 [DTC] (62593 NORAD) Tracking and Keplerian Element Data

This shows tracking and keplerian element data for the satellite.

Feedback or suggestion? Click here.




ElementValue
Catalog62593
NameSTARLINK-11413 [DTC]
Epoch Orbit445
Epoch Day34.97170152
Epoch Year2025
RAAN11.5455
Inclination43.0005
Eccentricity0.0001373
Argument of Perigee262.9475
Mean Anonmoly97.1239
Mean Motion15.77873526
Decay Rate0.00010294
L11 62593U 25008G 25034.97170152 .00010294 00000+0 61900-4 0 9991
L22 62593 43.0005 11.5455 0001373 262.9475 97.1239 15.77873526 4454



Live tracking and technical data element details for STARLINK-11413 [DTC] (NORAD 62593). STARLINK-11413 [DTC] can be tracked NOW for your location showing map with azimuth and elevation plus other details from your city location.







IsCatalogInMostPopularTable: catalog: 62593, numindb: 15
Update: records affected: 1



GetName: 62593 STARLINK-11413 [DTC]

Hit Count: updated at: Sat, 24 May 2025 16:54:41 GMT